吉利星座2组04星 (GEESAT-2 04)

导读

GEESAT 2-04是中国于2024年2月2日发射的一颗商业卫星,属于GEESAT 2系列卫星。作为中国制造的对地观测卫星,它具备先进的遥感探测能力,可为国土测绘、城市规划、环境监测、农业估产、灾害预警等领域提供高分辨率遥感数据支持。入轨后稳定运行至今已两年有余,卫星状态良好,正在持续为国民经济建设和商业航天应用贡献空间数据能力,推动中国商业遥感卫星星座的组网建设与应用拓展。

基本信息
目录编号:
58908
目录名称:
GEESAT 2-04
国际标识:
2024-023D
轨道中心:
EARTH
卫星名称:
吉利星座2组04星
卫星全名:
吉利星座2组04星 (GEESAT-2 04)
卫星状态:
在轨 (已飞行953 天)
发射日期:
2024-02-02 UTC
国别 :
中国 (CN)
星等 :
--
该卫星已列入 空间交会检测服务 Space Conjunction Data Service (SCDS) ,当前飞行风险评估等级: 无高风险
轨道信息
数据来源 国际轨道数据
星历时间: 2026-09-12T15:28:49+0800
7小时前
查看轨道信息
半长轴: 6952.789km
偏心率: 0.0006195
轨道倾角: 49.993°
近地点辐角 16.942°
升交点赤经 270.724°
平近点角 343.173°
近地点: 570.344km
远地点: 578.96km
周期: 96.161分钟
每日圈数: 14.97491
详细信息
平衡模式:
三轴稳定
覆盖范围:
全球
运营商:
时空道宇科技有限公司
运营商所在国:
中国
制造商(研发单位):
时空道宇科技有限公司
制造商所在国:
中国
使用方式:
暂无
卫星简介
吉利星座(GeeSAT)也称“吉利未来出行星座”,由吉利旗下时空道宇自主研发,布局硬核科技生态,赋能智慧出行、无人系统、智慧城市等领域,并将全面提升吉利控股旗下极氪、领克、远程新能源商用车等品牌的用户智能出行体验。通过“吉利未来出行星座”建设,吉利控股集团将构建天地一体化高精时空信息系统。该卫星仍在工作。
2D轨道图
3D轨道图
轨道高度分析图
轨道倾角分析图
轨道综合分析图
查看轨道综合分析图
交会数据列表
事件ID 空间交会对象 最接近时刻(TCA) 交会距离 交会风险概率(CRP) 交会风险指数(CRI) 操作
CDM_260913-103505-890806-720022
2026-09-13T
10:35:33+0000
1.549 km
极远距离
5.485445E-6 低风险 0.5
CDM_260913-035005-890806-325025
EZIE-B (63250)
2026-09-13T
03:50:13+0000
1.672 km
极远距离
4.338895E-6 低风险 0.48
CDM_260912-201005-890806-721121
2026-09-12T
20:10:23+0000
2.027 km
极远距离
2.525083E-6 低风险 0.43
CDM_260913-142205-543405-890824
2026-09-13T
14:22:02+0000
2.128 km
极远距离
1.826161E-6 低风险 0.4
CDM_260913-032205-890806-721121
2026-09-13T
03:22:54+0000
2.767 km
极远距离
1.370625E-6 低风险 0.38
CDM_260913-174805-890806-720021
2026-09-13T
17:48:04+0000
2.981 km
极远距离
1.245423E-6 低风险 0.37
与全量物体交会距离演化趋势
与全量物体交会风险概率演化趋势